Location: Roanoke
(37.2710°N, 79.9420°W)
Time: 08:08:42
(UTC-05:00)

Courier 1B Rocket - Pass Details

Date: 24 November 2019
Orbit: 920 x 1202 km, 28.2° (Epoch: 05 December)

Event Time Altitude Azimuth Distance (km) Brightness Sun altitude
Rises 19:05:56 0° 259° (W) 3,926 9.6 -23.9°
Reaches altitude 10° 19:10:28 10° 234° (SW) 3,024 8.4 -24.7°
Maximum altitude 19:13:42 13° 208° (SSW) 2,819 7.8 -25.4°
Drops below altitude 10° 19:16:59 10° 182° (S) 3,085 7.7 -26.0°
Sets 19:21:44 0° 157° (SSE) 4,074 8.1 -27.0°
